User: anonymous   Login
Location: C.E.K. Mees Observatory
(42.7003°N, 77.4088°W)
Time: 21:14:00
(UTC-04:00)
Language:

N. Korean satellite - Orbit

View from above orbital plane
View from above orbital plane
View from above satellite
View from above satellite

Ground track
Ground track

The orbit data is extracted from the following two-line orbital elements,

1 39026U 12072A   18116.11372371  .00001677  00000-0  65363-4 0  9992
2 39026  97.2124 128.2519 0040413 145.7811 214.6045 15.26579630297716
Epoch (UTC): 26 April 2018 02:43:45
Eccentricity: 0.0040413
inclination: 97.2124°
perigee height: 458 km
apogee height: 514 km
right ascension of ascending node: 128.2519°
argument of perigee: 145.7811°
revolutions per day: 15.26579630
mean anomaly at epoch: 214.6045°
orbit number at epoch: 29771

The dashed part of the orbit path shows where the satellite is in the earth's shadow,  

DLR